Location: Chena
(64.8152°N, 147.9227°W)
Time: 13:07:32
(UTC+00:00)

N. Korean satellite - Pass Details

Date: 23 January 2021
Orbit: 451 x 503 km, 97.2° (Epoch: 28 February)

Event Time Altitude Azimuth Distance (km) Brightness Sun altitude
Rises 16:31:23 0° 16° (NNE) 2,553 10.3 -14.5°
Reaches altitude 10° 16:33:30 10° 11° (NNE) 1,660 9.2 -14.3°
Maximum altitude 16:36:57 48° 297° (WNW) 625 6.7 -13.9°
Drops below altitude 10° 16:40:19 10° 222° (SW) 1,622 9.0 -13.6°
Sets 16:42:22 0° 217° (SW) 2,486 10.0 -13.4°
